TimeCDT,TemperatureF,Dew PointF,Humidity,Sea Level PressureIn,VisibilityMPH,Wind Direction,Wind SpeedMPH,Gust SpeedMPH,PrecipitationIn,Events,Conditions,WindDirDegrees,DateUTC
12:52 AM,46.9,42.1,83,30.05,10.0,North,4.6,-,N/A,,Clear,360,2013-10-07 05:52:00
1:52 AM,44.1,39.9,85,30.06,10.0,Calm,Calm,-,N/A,,Clear,0,2013-10-07 06:52:00
2:52 AM,42.1,39.0,89,30.07,10.0,Calm,Calm,-,N/A,,Clear,0,2013-10-07 07:52:00
3:52 AM,42.1,39.0,89,30.07,10.0,NE,3.5,-,N/A,,Clear,50,2013-10-07 08:52:00
4:52 AM,41.0,37.0,86,30.10,10.0,Calm,Calm,-,N/A,,Clear,0,2013-10-07 09:52:00
5:52 AM,39.9,37.0,89,30.12,10.0,Calm,Calm,-,N/A,,Clear,0,2013-10-07 10:52:00
6:52 AM,37.9,36.0,93,30.14,10.0,Calm,Calm,-,N/A,,Clear,0,2013-10-07 11:52:00
7:52 AM,39.0,37.0,93,30.16,10.0,Calm,Calm,-,N/A,,Clear,0,2013-10-07 12:52:00
8:52 AM,50.0,42.1,74,30.18,10.0,NNW,3.5,-,N/A,,Clear,330,2013-10-07 13:52:00
9:52 AM,57.0,43.0,59,30.19,10.0,North,4.6,-,N/A,,Clear,350,2013-10-07 14:52:00
10:52 AM,62.1,42.1,48,30.19,10.0,Calm,Calm,-,N/A,,Clear,0,2013-10-07 15:52:00
11:52 AM,66.0,39.0,37,30.19,10.0,NNW,3.5,-,N/A,,Clear,330,2013-10-07 16:52:00
12:52 PM,69.1,39.9,35,30.17,10.0,NNW,3.5,-,N/A,,Clear,340,2013-10-07 17:52:00
1:52 PM,71.1,39.9,32,30.14,10.0,Calm,Calm,-,N/A,,Clear,0,2013-10-07 18:52:00
2:52 PM,73.0,41.0,31,30.13,10.0,Calm,Calm,-,N/A,,Clear,0,2013-10-07 19:52:00
3:52 PM,73.9,41.0,30,30.12,10.0,Calm,Calm,-,N/A,,Clear,0,2013-10-07 20:52:00
4:52 PM,73.0,42.1,33,30.11,10.0,Calm,Calm,-,N/A,,Clear,0,2013-10-07 21:52:00
5:52 PM,72.0,44.1,37,30.11,10.0,Calm,Calm,-,N/A,,Clear,0,2013-10-07 22:52:00
6:52 PM,60.1,53.1,78,30.11,10.0,Calm,Calm,-,N/A,,Clear,0,2013-10-07 23:52:00
7:52 PM,54.0,50.0,86,30.12,10.0,Calm,Calm,-,N/A,,Clear,0,2013-10-08 00:52:00
8:52 PM,51.1,48.9,92,30.13,10.0,ESE,3.5,-,N/A,,Clear,110,2013-10-08 01:52:00
9:52 PM,51.1,48.0,89,30.14,10.0,Calm,Calm,-,N/A,,Clear,0,2013-10-08 02:52:00
10:52 PM,48.0,45.0,89,30.13,10.0,Calm,Calm,-,N/A,,Clear,0,2013-10-08 03:52:00
11:52 PM,48.0,46.0,93,30.13,10.0,Calm,Calm,-,N/A,,Clear,0,2013-10-08 04:52:00